• In Uzbekistan
  • List of Countries
  • For 7 days
  • Water Temperature
  • Satellite Maps
  • Weather Map
  • Weather Widgets
  • user-avatar
    Login

    Hourly Weather Bururi

    Today, 25 June, Tuesday

    Time Temperature Precipitation Wind Pressure Humidity
    00:00 +18°C° 0 mm 1 mps 616 mmHg 70%
    01:00 +18°C° 0 mm 1 mps 616 mmHg 70%
    02:00 +18°C° 0 mm 1 mps 616 mmHg 73%
    03:00 +18°C° 0 mm 1 mps 616 mmHg 73%
    04:00 +16°C° 0 mm 1 mps 616 mmHg 74%
    05:00 +16°C° 0 mm 1 mps 616 mmHg 75%
    06:00 +18°C° 0 mm 1 mps 617 mmHg 72%
    07:00 +20°C° 0 mm 1 mps 617 mmHg 68%
    08:00 +19°C° 0 mm 0 mps 618 mmHg 65%
    09:00 +22°C° 0.1 mm 1 mps 618 mmHg 63%
    10:00 +23°C° 0.1 mm 2 mps 618 mmHg 61%
    11:00 +24°C° 0.1 mm 2 mps 619 mmHg 58%
    12:00 +23°C° 0.4 mm 2 mps 618 mmHg 62%
    13:00 +23°C° 0.4 mm 2 mps 617 mmHg 65%
    14:00 +23°C° 0 mm 2 mps 617 mmHg 68%
    15:00 +22°C° 0.4 mm 1 mps 616 mmHg 71%
    16:00 +22°C° 0.4 mm 1 mps 616 mmHg 74%
    17:00 +21°C° 0.4 mm 1 mps 616 mmHg 77%
    18:00 +20°C° 0 mm 1 mps 616 mmHg 78%
    19:00 +20°C° 0 mm 1 mps 616 mmHg 79%
    20:00 +19°C° 0 mm 1 mps 617 mmHg 80%
    21:00 +19°C° 0 mm 1 mps 617 mmHg 79%
    22:00 +19°C° 0 mm 1 mps 617 mmHg 77%
    23:00 +19°C° 0 mm 1 mps 617 mmHg 76%

    Tomorrow, 26 June, Wednesday

    Time Temperature Precipitation Wind Pressure Humidity
    00:00 +19°C° 0 mm 1 mps 617 mmHg 75%
    01:00 +18°C° 0 mm 1 mps 616 mmHg 75%
    02:00 +18°C° 0 mm 1 mps 616 mmHg 74%
    03:00 +18°C° 0 mm 1 mps 616 mmHg 74%
    04:00 +18°C° 0 mm 1 mps 616 mmHg 74%
    05:00 +16°C° 0 mm 1 mps 616 mmHg 74%
    06:00 +18°C° 0 mm 1 mps 617 mmHg 72%
    07:00 +19°C° 0 mm 1 mps 618 mmHg 70%
    08:00 +21°C° 0 mm 1 mps 618 mmHg 69%
    09:00 +21°C° 0.1 mm 1 mps 619 mmHg 66%
    10:00 +21°C° 0.1 mm 2 mps 619 mmHg 64%
    11:00 +23°C° 0.1 mm 2 mps 619 mmHg 61%
    12:00 +23°C° 0.3 mm 2 mps 618 mmHg 62%
    13:00 +23°C° 0.3 mm 2 mps 618 mmHg 62%
    14:00 +23°C° 0.3 mm 2 mps 617 mmHg 63%
    15:00 +21°C° 0.2 mm 2 mps 617 mmHg 65%
    16:00 +21°C° 0.2 mm 2 mps 617 mmHg 67%
    17:00 +22°C° 0.2 mm 1 mps 616 mmHg 70%
    18:00 +20°C° 0 mm 1 mps 616 mmHg 74%
    19:00 +19°C° 0 mm 1 mps 616 mmHg 78%
    20:00 +18°C° 0 mm 1 mps 616 mmHg 82%
    21:00 +18°C° 0 mm 1 mps 617 mmHg 79%
    22:00 +18°C° 0 mm 1 mps 617 mmHg 77%
    23:00 +19°C° 0 mm 1 mps 618 mmHg 74%

    Day after tomorrow, 27 June, Thursday

    Time Temperature Precipitation Wind Pressure Humidity
    00:00 +19°C° 0 mm 1 mps 617 mmHg 74%
    01:00 +19°C° 0 mm 1 mps 617 mmHg 73%
    02:00 +19°C° 0 mm 1 mps 616 mmHg 72%
    03:00 +18°C° 0 mm 1 mps 617 mmHg 73%
    04:00 +18°C° 0 mm 1 mps 617 mmHg 73%
    05:00 +18°C° 0 mm 1 mps 617 mmHg 73%
    06:00 +18°C° 0 mm 1 mps 617 mmHg 73%
    07:00 +19°C° 0 mm 1 mps 618 mmHg 72%
    08:00 +19°C° 0 mm 1 mps 619 mmHg 72%
    09:00 +19°C° 0.1 mm 1 mps 618 mmHg 70%
    10:00 +19°C° 0.1 mm 1 mps 618 mmHg 69%
    11:00 +20°C° 0.1 mm 1 mps 618 mmHg 68%
    12:00 +21°C° 0 mm 1 mps 618 mmHg 64%
    13:00 +21°C° 0 mm 2 mps 618 mmHg 60%
    14:00 +23°C° 0 mm 2 mps 618 mmHg 56%
    15:00 +21°C° 0 mm 2 mps 618 mmHg 59%
    16:00 +22°C° 0 mm 1 mps 617 mmHg 63%
    17:00 +21°C° 0 mm 1 mps 617 mmHg 67%
    18:00 +20°C° 0 mm 1 mps 617 mmHg 71%
    19:00 +19°C° 0 mm 1 mps 617 mmHg 74%
    20:00 +18°C° 0 mm 1 mps 617 mmHg 78%
    21:00 +18°C° 0 mm 1 mps 617 mmHg 76%
    22:00 +18°C° 0 mm 1 mps 617 mmHg 75%
    23:00 +18°C° 0 mm 1 mps 617 mmHg 73%

    28 June, Friday

    Time Temperature Precipitation Wind Pressure Humidity
    00:00 +18°C° 0 mm 1 mps 617 mmHg 73%
    01:00 +18°C° 0 mm 1 mps 617 mmHg 72%
    02:00 +18°C° 0 mm 1 mps 617 mmHg 71%
    03:00 +18°C° 0 mm 1 mps 617 mmHg 73%
    04:00 +15°C° 0 mm 0 mps 616 mmHg 74%
    05:00 +15°C° 0 mm 0 mps 616 mmHg 76%
    06:00 +16°C° 0 mm 0 mps 617 mmHg 73%
    07:00 +17°C° 0 mm 0 mps 618 mmHg 70%
    08:00 +18°C° 0 mm 0 mps 619 mmHg 67%
    09:00 +21°C° 0.1 mm 1 mps 619 mmHg 65%
    10:00 +22°C° 0.1 mm 1 mps 619 mmHg 63%
    11:00 +21°C° 0.1 mm 2 mps 619 mmHg 61%
    12:00 +23°C° 0.1 mm 2 mps 618 mmHg 60%
    13:00 +23°C° 0.1 mm 2 mps 618 mmHg 60%
    14:00 +24°C° 0.1 mm 2 mps 617 mmHg 59%
    15:00 +23°C° 0.2 mm 2 mps 617 mmHg 62%
    16:00 +23°C° 0.2 mm 2 mps 617 mmHg 66%
    17:00 +22°C° 0.2 mm 1 mps 616 mmHg 69%
    18:00 +21°C° 0.1 mm 1 mps 616 mmHg 73%
    19:00 +19°C° 0.1 mm 1 mps 616 mmHg 77%
    20:00 +18°C° 0.1 mm 1 mps 617 mmHg 80%
    21:00 +18°C° 0 mm 1 mps 617 mmHg 77%
    22:00 +16°C° 0 mm 1 mps 617 mmHg 74%
    23:00 +16°C° 0 mm 1 mps 617 mmHg 70%

    29 June, Saturday

    Time Temperature Precipitation Wind Pressure Humidity
    00:00 +16°C° 0 mm 1 mps 617 mmHg 70%
    01:00 +16°C° 0 mm 1 mps 617 mmHg 69%
    02:00 +16°C° 0 mm 1 mps 616 mmHg 68%
    03:00 +16°C° 0 mm 1 mps 616 mmHg 68%
    04:00 +16°C° 0 mm 1 mps 616 mmHg 68%
    05:00 +15°C° 0 mm 1 mps 616 mmHg 68%
    06:00 +18°C° 0 mm 1 mps 617 mmHg 67%
    07:00 +17°C° 0 mm 0 mps 618 mmHg 65%
    08:00 +19°C° 0 mm 0 mps 619 mmHg 63%
    09:00 +22°C° 0 mm 1 mps 619 mmHg 61%
    10:00 +23°C° 0 mm 2 mps 619 mmHg 59%
    11:00 +22°C° 0 mm 3 mps 620 mmHg 56%
    12:00 +24°C° 0.1 mm 2 mps 619 mmHg 57%
    13:00 +24°C° 0.1 mm 2 mps 618 mmHg 57%
    14:00 +24°C° 0.1 mm 2 mps 618 mmHg 57%
    15:00 +23°C° 0.1 mm 2 mps 617 mmHg 61%
    16:00 +23°C° 0.1 mm 2 mps 617 mmHg 64%
    17:00 +22°C° 0.1 mm 1 mps 616 mmHg 68%
    18:00 +20°C° 0 mm 1 mps 617 mmHg 73%
    19:00 +19°C° 0 mm 1 mps 617 mmHg 79%
    20:00 +18°C° 0 mm 1 mps 617 mmHg 84%
    21:00 +18°C° 0 mm 1 mps 617 mmHg 81%
    22:00 +16°C° 0 mm 1 mps 617 mmHg 78%
    23:00 +16°C° 0 mm 1 mps 617 mmHg 75%

    30 June, Sunday

    Time Temperature Precipitation Wind Pressure Humidity
    00:00 +16°C° 0 mm 1 mps 617 mmHg 74%
    01:00 +16°C° 0 mm 1 mps 617 mmHg 72%
    02:00 +16°C° 0 mm 1 mps 616 mmHg 70%
    03:00 +16°C° 0 mm 1 mps 617 mmHg 70%
    04:00 +16°C° 0 mm 1 mps 617 mmHg 71%
    05:00 +15°C° 0 mm 1 mps 617 mmHg 71%
    06:00 +16°C° 0 mm 1 mps 617 mmHg 70%
    07:00 +18°C° 0 mm 1 mps 618 mmHg 68%
    08:00 +18°C° 0 mm 2 mps 619 mmHg 67%
    09:00 +19°C° 0 mm 2 mps 619 mmHg 63%
    10:00 +20°C° 0 mm 2 mps 620 mmHg 59%
    11:00 +21°C° 0 mm 2 mps 620 mmHg 55%
    12:00 +23°C° 0 mm 2 mps 619 mmHg 55%
    13:00 +23°C° 0 mm 2 mps 619 mmHg 54%
    14:00 +23°C° 0 mm 2 mps 618 mmHg 54%
    15:00 +23°C° 0 mm 2 mps 618 mmHg 56%
    16:00 +21°C° 0 mm 2 mps 618 mmHg 58%
    17:00 +22°C° 0 mm 1 mps 617 mmHg 61%
    18:00 +20°C° 0 mm 1 mps 617 mmHg 64%
    19:00 +19°C° 0 mm 1 mps 617 mmHg 68%
    20:00 +16°C° 0 mm 1 mps 617 mmHg 72%
    21:00 +16°C° 0 mm 1 mps 617 mmHg 70%
    22:00 +16°C° 0 mm 1 mps 617 mmHg 69%
    23:00 +16°C° 0 mm 1 mps 618 mmHg 67%
    Show more